Island Lookout — WDF6311 — position and weather

sailwx.info

Track history (hours):
 
Tides and Currents Weather Stations Pressure Air Temp Water Temp Dewpoint Dewpoint Depression Visibility Wind Speed Wind Dir Waves Ship Positions

Island Lookout

Owner: Stevens Towing Company Inc., Yonges Island, SC. More information available from US FCC via Universal Licensing System and Coast Guard Vessel Documentation Center.

Last reported at 2014-Oct-28 11:30 UTC. Time now 2014-Nov-01 01:22 UTC.
Position N 36°16' W 075°57'.

Length 22 m; draft 2.9 m.

Type: Towing. MMSI: 367472930.

Date/timePositionNaut miles runAvg speedWind from/ knotsBaromVisibWave heightAir tempDewpointWater temp
2014-Oct-28 11:30N 36°16' W 075°57'3 3.7
2014-Oct-28 10:33N 36°20' W 075°58'4 4.0
2014-Oct-28 09:32N 36°24' W 075°57'2 2.0
2014-Oct-28 08:33N 36°26' W 075°57'154 5.3
2014-Oct-27 03:11N 38°59' W 076°23'12 5.8
2014-Oct-27 01:06N 39°11' W 076°26'3 6.2
2014-Oct-27 00:33N 39°12' W 076°30'4 3.6
2014-Oct-26 23:33N 39°12' W 076°35'0 0.0
2014-Oct-26 22:33N 39°12' W 076°35'0 0.1
2014-Oct-26 21:33N 39°12' W 076°35'0 0.0
2014-Oct-26 20:33N 39°12' W 076°35'0 0.0
2014-Oct-26 19:33N 39°12' W 076°35'2 2.4
2014-Oct-26 18:33N 39°13' W 076°32'7 6.5
2014-Oct-26 17:33N 39°09' W 076°25'  
2014-Oct-22 16:25N 36°44' W 076°16'3 3.5
2014-Oct-22 15:33N 36°46' W 076°18'21 4.8
2014-Oct-22 11:08N 37°07' W 076°13'125 6.4
2014-Oct-21 15:32N 39°12' W 076°29'4 4.5
2014-Oct-21 14:33N 39°12' W 076°35'0 0.3
2014-Oct-21 13:33N 39°13' W 076°35'0 0.0
2014-Oct-21 12:33N 39°13' W 076°35'0 0.3
2014-Oct-21 11:33N 39°12' W 076°35'0 0.0
2014-Oct-21 10:33N 39°12' W 076°35'0 0.1
2014-Oct-21 09:34N 39°12' W 076°35'0 0.0
2014-Oct-21 08:33N 39°12' W 076°35'0 0.0
2014-Oct-21 07:33N 39°12' W 076°35'0 0.0
2014-Oct-21 06:34N 39°12' W 076°35'0 0.0
2014-Oct-21 05:33N 39°12' W 076°35'0 0.0
2014-Oct-21 04:33N 39°12' W 076°35'0 0.0
2014-Oct-21 03:33N 39°12' W 076°35'0 0.1
2014-Oct-21 02:33N 39°12' W 076°35'5 4.7
2014-Oct-21 01:33N 39°12' W 076°29'15 6.4
2014-Oct-20 23:17N 38°58' W 076°24'112 7.6
2014-Oct-20 08:28N 37°06' W 076°13'  
Track history (hours):
 
Tides and Currents Weather Stations Pressure Air Temp Water Temp Dewpoint Dewpoint Depression Visibility Wind Speed Wind Dir Waves Ship Positions

Island Lookout

Owner: Stevens Towing Company Inc., Yonges Island, SC. More information available from US FCC via Universal Licensing System and Coast Guard Vessel Documentation Center.

Last reported at 2014-Oct-28 11:30 UTC. Time now 2014-Nov-01 01:22 UTC.
Position N 36°16' W 075°57'.

Length 22 m; draft 2.9 m.

Type: Towing. MMSI: 367472930.

Date/timePositionNaut miles runAvg speedWind from/ knotsBaromVisibWave heightAir tempDewpointWater temp
2014-Oct-28 11:30N 36°16' W 075°57'3 3.7
2014-Oct-28 10:33N 36°20' W 075°58'4 4.0
2014-Oct-28 09:32N 36°24' W 075°57'2 2.0
2014-Oct-28 08:33N 36°26' W 075°57'154 5.3
2014-Oct-27 03:11N 38°59' W 076°23'12 5.8
2014-Oct-27 01:06N 39°11' W 076°26'3 6.2
2014-Oct-27 00:33N 39°12' W 076°30'4 3.6
2014-Oct-26 23:33N 39°12' W 076°35'0 0.0
2014-Oct-26 22:33N 39°12' W 076°35'0 0.1
2014-Oct-26 21:33N 39°12' W 076°35'0 0.0
2014-Oct-26 20:33N 39°12' W 076°35'0 0.0
2014-Oct-26 19:33N 39°12' W 076°35'2 2.4
2014-Oct-26 18:33N 39°13' W 076°32'7 6.5
2014-Oct-26 17:33N 39°09' W 076°25'  
2014-Oct-22 16:25N 36°44' W 076°16'3 3.5
2014-Oct-22 15:33N 36°46' W 076°18'21 4.8
2014-Oct-22 11:08N 37°07' W 076°13'125 6.4
2014-Oct-21 15:32N 39°12' W 076°29'4 4.5
2014-Oct-21 14:33N 39°12' W 076°35'0 0.3
2014-Oct-21 13:33N 39°13' W 076°35'0 0.0
2014-Oct-21 12:33N 39°13' W 076°35'0 0.3
2014-Oct-21 11:33N 39°12' W 076°35'0 0.0
2014-Oct-21 10:33N 39°12' W 076°35'0 0.1
2014-Oct-21 09:34N 39°12' W 076°35'0 0.0
2014-Oct-21 08:33N 39°12' W 076°35'0 0.0
2014-Oct-21 07:33N 39°12' W 076°35'0 0.0
2014-Oct-21 06:34N 39°12' W 076°35'0 0.0
2014-Oct-21 05:33N 39°12' W 076°35'0 0.0
2014-Oct-21 04:33N 39°12' W 076°35'0 0.0
2014-Oct-21 03:33N 39°12' W 076°35'0 0.1
2014-Oct-21 02:33N 39°12' W 076°35'5 4.7
2014-Oct-21 01:33N 39°12' W 076°29'15 6.4
2014-Oct-20 23:17N 38°58' W 076°24'112 7.6
2014-Oct-20 08:28N 37°06' W 076°13'  

Dump ship's entire track history